• In Deutschland
  • Länderverzeichnis
  • Für 7 Tage
  • Wassertemperatur
  • Satellitenkarten
  • Wetterkarte
  • Widgets
  • user-avatar
    Anmelden

    Stündliche Wetter Eisenstadt

    Heute, 21 Mai, Montag

    Zeit Temperatur Niederschläge Wind Luftdruck Luftfeuchtigkeit
    00:00 +12°C° 0,2 mm 1 m/S 725 mmHg 87%
    01:00 +13°C° 0 mm 1 m/S 725 mmHg 89%
    02:00 +12°C° 0,1 mm 1 m/S 725 mmHg 89%
    03:00 +12°C° 0,1 mm 1 m/S 725 mmHg 90%
    04:00 +12°C° 0,1 mm 1 m/S 724 mmHg 90%
    05:00 +13°C° 0 mm 1 m/S 724 mmHg 87%
    06:00 +14°C° 0 mm 1 m/S 724 mmHg 83%
    07:00 +15°C° 0 mm 1 m/S 724 mmHg 80%
    08:00 +16°C° 0,2 mm 2 m/S 724 mmHg 75%
    09:00 +18°C° 0,2 mm 2 m/S 724 mmHg 70%
    10:00 +19°C° 0,2 mm 2 m/S 724 mmHg 65%
    11:00 +19°C° 0,3 mm 2 m/S 724 mmHg 63%
    12:00 +20°C° 0,3 mm 3 m/S 723 mmHg 61%
    13:00 +20°C° 0 mm 2 m/S 723 mmHg 58%
    14:00 +20°C° 0,2 mm 2 m/S 723 mmHg 58%
    15:00 +21°C° 0,2 mm 2 m/S 723 mmHg 57%
    16:00 +21°C° 0,2 mm 2 m/S 722 mmHg 57%
    17:00 +19°C° 0 mm 2 m/S 722 mmHg 62%
    18:00 +19°C° 0 mm 1 m/S 721 mmHg 67%
    19:00 +18°C° 0 mm 1 m/S 721 mmHg 73%
    20:00 +15°C° 0 mm 1 m/S 721 mmHg 74%
    21:00 +14°C° 0 mm 1 m/S 721 mmHg 76%
    22:00 +13°C° 0 mm 1 m/S 721 mmHg 77%
    23:00 +13°C° 0 mm 1 m/S 721 mmHg 79%

    Morgen, 22 Mai, Dienstag

    Zeit Temperatur Niederschläge Wind Luftdruck Luftfeuchtigkeit
    00:00 +13°C° 0 mm 1 m/S 721 mmHg 80%
    01:00 +12°C° 0 mm 1 m/S 721 mmHg 81%
    02:00 +12°C° 0 mm 1 m/S 721 mmHg 82%
    03:00 +12°C° 0 mm 1 m/S 721 mmHg 84%
    04:00 +12°C° 0 mm 1 m/S 720 mmHg 85%
    05:00 +13°C° 0 mm 1 m/S 721 mmHg 82%
    06:00 +15°C° 0 mm 1 m/S 721 mmHg 79%
    07:00 +16°C° 0 mm 2 m/S 721 mmHg 75%
    08:00 +18°C° 0,1 mm 2 m/S 721 mmHg 71%
    09:00 +19°C° 0,1 mm 3 m/S 721 mmHg 67%
    10:00 +21°C° 0,1 mm 3 m/S 722 mmHg 63%
    11:00 +21°C° 0,2 mm 3 m/S 722 mmHg 63%
    12:00 +22°C° 0,2 mm 4 m/S 722 mmHg 62%
    13:00 +22°C° 0,2 mm 4 m/S 722 mmHg 62%
    14:00 +22°C° 0,1 mm 3 m/S 721 mmHg 63%
    15:00 +21°C° 0,1 mm 3 m/S 721 mmHg 64%
    16:00 +21°C° 0,1 mm 3 m/S 721 mmHg 65%
    17:00 +20°C° 0,1 mm 2 m/S 721 mmHg 71%
    18:00 +19°C° 0,1 mm 2 m/S 721 mmHg 77%
    19:00 +18°C° 0,1 mm 2 m/S 721 mmHg 83%
    20:00 +17°C° 0 mm 2 m/S 721 mmHg 86%
    21:00 +16°C° 0 mm 2 m/S 721 mmHg 89%
    22:00 +15°C° 0 mm 2 m/S 721 mmHg 92%
    23:00 +15°C° 0 mm 2 m/S 721 mmHg 93%

    übermorgen, 23 Mai, Mittwoch

    Zeit Temperatur Niederschläge Wind Luftdruck Luftfeuchtigkeit
    00:00 +14°C° 0 mm 2 m/S 721 mmHg 94%
    01:00 +14°C° 0 mm 2 m/S 721 mmHg 94%
    02:00 +14°C° 0 mm 1 m/S 721 mmHg 95%
    03:00 +13°C° 0 mm 1 m/S 722 mmHg 95%
    04:00 +13°C° 0 mm 1 m/S 722 mmHg 95%
    05:00 +14°C° 0 mm 1 m/S 722 mmHg 91%
    06:00 +16°C° 0 mm 1 m/S 722 mmHg 86%
    07:00 +18°C° 0 mm 1 m/S 723 mmHg 82%
    08:00 +20°C° 0 mm 1 m/S 723 mmHg 75%
    09:00 +22°C° 0 mm 1 m/S 723 mmHg 69%
    10:00 +23°C° 0 mm 2 m/S 724 mmHg 63%
    11:00 +24°C° 0,1 mm 2 m/S 724 mmHg 61%
    12:00 +24°C° 0,1 mm 2 m/S 723 mmHg 59%
    13:00 +25°C° 0,1 mm 2 m/S 723 mmHg 57%
    14:00 +25°C° 0,3 mm 2 m/S 723 mmHg 58%
    15:00 +25°C° 0,3 mm 2 m/S 723 mmHg 59%
    16:00 +25°C° 0,3 mm 1 m/S 723 mmHg 60%
    17:00 +24°C° 0,4 mm 1 m/S 723 mmHg 66%
    18:00 +22°C° 0,4 mm 1 m/S 723 mmHg 72%
    19:00 +21°C° 0,4 mm 1 m/S 723 mmHg 77%
    20:00 +20°C° 0,5 mm 1 m/S 723 mmHg 80%
    21:00 +19°C° 0,5 mm 1 m/S 723 mmHg 83%
    22:00 +18°C° 0,5 mm 1 m/S 724 mmHg 86%
    23:00 +16°C° 0,2 mm 1 m/S 723 mmHg 88%

    24 Mai, Donnerstag

    Zeit Temperatur Niederschläge Wind Luftdruck Luftfeuchtigkeit
    00:00 +16°C° 0,2 mm 1 m/S 723 mmHg 89%
    01:00 +16°C° 0,2 mm 1 m/S 723 mmHg 91%
    02:00 +15°C° 0,1 mm 1 m/S 723 mmHg 92%
    03:00 +15°C° 0,1 mm 1 m/S 723 mmHg 93%
    04:00 +15°C° 0,1 mm 1 m/S 723 mmHg 94%
    05:00 +16°C° 0,1 mm 1 m/S 724 mmHg 91%
    06:00 +18°C° 0,1 mm 1 m/S 724 mmHg 89%
    07:00 +19°C° 0,1 mm 2 m/S 724 mmHg 86%
    08:00 +20°C° 0,4 mm 2 m/S 724 mmHg 81%
    09:00 +21°C° 0,4 mm 2 m/S 724 mmHg 77%
    10:00 +23°C° 0,4 mm 2 m/S 724 mmHg 72%
    11:00 +24°C° 0,6 mm 2 m/S 724 mmHg 69%
    12:00 +25°C° 0,6 mm 2 m/S 724 mmHg 67%
    13:00 +25°C° 0,6 mm 2 m/S 724 mmHg 64%
    14:00 +25°C° 0,4 mm 2 m/S 724 mmHg 64%
    15:00 +25°C° 0,4 mm 2 m/S 723 mmHg 64%
    16:00 +25°C° 0,4 mm 2 m/S 723 mmHg 65%
    17:00 +24°C° 0,5 mm 2 m/S 723 mmHg 71%
    18:00 +22°C° 0,5 mm 1 m/S 723 mmHg 77%
    19:00 +21°C° 0,5 mm 1 m/S 723 mmHg 82%
    20:00 +20°C° 0,3 mm 1 m/S 723 mmHg 85%
    21:00 +19°C° 0,3 mm 1 m/S 724 mmHg 88%
    22:00 +18°C° 0,3 mm 1 m/S 724 mmHg 90%
    23:00 +18°C° 0,1 mm 1 m/S 724 mmHg 91%

    25 Mai, Freitag

    Zeit Temperatur Niederschläge Wind Luftdruck Luftfeuchtigkeit
    00:00 +18°C° 0,1 mm 1 m/S 724 mmHg 93%
    01:00 +16°C° 0,1 mm 1 m/S 724 mmHg 94%
    02:00 +16°C° 0,2 mm 1 m/S 724 mmHg 94%
    03:00 +16°C° 0,2 mm 1 m/S 724 mmHg 95%
    04:00 +15°C° 0,2 mm 1 m/S 724 mmHg 95%
    05:00 +16°C° 0,3 mm 1 m/S 724 mmHg 93%
    06:00 +17°C° 0,3 mm 2 m/S 724 mmHg 91%
    07:00 +18°C° 0,3 mm 2 m/S 725 mmHg 88%
    08:00 +20°C° 0,3 mm 2 m/S 725 mmHg 83%
    09:00 +21°C° 0,3 mm 2 m/S 725 mmHg 78%
    10:00 +23°C° 0,3 mm 2 m/S 725 mmHg 73%
    11:00 +24°C° 0,5 mm 2 m/S 725 mmHg 70%
    12:00 +25°C° 0,5 mm 2 m/S 725 mmHg 68%
    13:00 +25°C° 0,5 mm 2 m/S 725 mmHg 65%
    14:00 +25°C° 0,4 mm 2 m/S 725 mmHg 65%
    15:00 +25°C° 0,4 mm 2 m/S 725 mmHg 66%
    16:00 +25°C° 0,4 mm 2 m/S 725 mmHg 66%
    17:00 +24°C° 0,5 mm 2 m/S 725 mmHg 72%
    18:00 +23°C° 0,5 mm 1 m/S 725 mmHg 78%
    19:00 +21°C° 0,5 mm 1 m/S 725 mmHg 84%
    20:00 +20°C° 0,3 mm 1 m/S 725 mmHg 86%
    21:00 +20°C° 0,3 mm 1 m/S 725 mmHg 88%
    22:00 +19°C° 0,3 mm 1 m/S 725 mmHg 90%
    23:00 +18°C° 0,8 mm 1 m/S 725 mmHg 91%

    26 Mai, Samstag

    Zeit Temperatur Niederschläge Wind Luftdruck Luftfeuchtigkeit
    00:00 +18°C° 0,8 mm 1 m/S 725 mmHg 92%
    01:00 +18°C° 0,8 mm 1 m/S 725 mmHg 93%
    02:00 +16°C° 0,6 mm 1 m/S 725 mmHg 93%
    03:00 +16°C° 0,6 mm 1 m/S 725 mmHg 94%
    04:00 +15°C° 0,6 mm 1 m/S 725 mmHg 94%
    05:00 +16°C° 0,7 mm 1 m/S 726 mmHg 91%
    06:00 +19°C° 0,7 mm 1 m/S 726 mmHg 89%
    07:00 +20°C° 0,7 mm 1 m/S 726 mmHg 86%
    08:00 +21°C° 0,5 mm 1 m/S 727 mmHg 82%
    09:00 +21°C° 0,5 mm 2 m/S 727 mmHg 77%
    10:00 +23°C° 0,5 mm 2 m/S 727 mmHg 73%
    11:00 +24°C° 0,8 mm 2 m/S 727 mmHg 71%
    12:00 +24°C° 0,8 mm 2 m/S 727 mmHg 69%
    13:00 +25°C° 0,8 mm 2 m/S 727 mmHg 67%
    14:00 +25°C° 0,4 mm 2 m/S 727 mmHg 67%
    15:00 +25°C° 0,4 mm 1 m/S 727 mmHg 67%
    16:00 +25°C° 0,4 mm 1 m/S 727 mmHg 67%
    17:00 +24°C° 0,1 mm 1 m/S 727 mmHg 71%
    18:00 +23°C° 0,1 mm 1 m/S 727 mmHg 75%
    19:00 +22°C° 0,1 mm 1 m/S 727 mmHg 80%
    20:00 +21°C° 0,1 mm 1 m/S 727 mmHg 82%
    21:00 +20°C° 0,1 mm 1 m/S 727 mmHg 84%
    22:00 +19°C° 0,1 mm 1 m/S 727 mmHg 87%
    23:00 +18°C° 0,1 mm 1 m/S 727 mmHg 88%
    Mehr zeigen